Regional Weather Roundup
Issued by NWS Goodland, KS

Home | Current Version | Previous Version | Text Only | Print | Product List | Glossary Off
Versions: 1 2 3 4 5 6 7 8 9 10 11 12 13 14 15 16 17 18 19 20 21 22 23 24 25 26 27 28 29 30 31 32 33 34 35 36 37 38 39 40 41 42 43 44 45 46 47 48 49 50

000
ASUS43 KGLD 210759
RWRGLD

GOODLAND FORECAST AREA HOURLY WEATHER ROUNDUP
NATIONAL WEATHER SERVICE GOODLAND KS
100 AM MST SUN DEC 21 2014

...OFFICIAL OBSERVATIONS...

CITY           SKY/WX    TMP DP  RH WIND       PRES   REMARKS
GOODLAND KS    CLOUDY    32  28  85 W3        29.89F
HILL CITY KS   MOCLDY    35  31  85 CALM      29.94F
IMPERIAL NEB   CLOUDY    36  26  67 S6        29.87F
MCCOOK NEB     PTCLDY    28  24  85 W5        29.89F
AKRON CO       PTCLDY    29  22  75 SW10      29.85F WCI  20
BURLINGTON CO  MOCLDY    30  25  81 W8        29.89F
LIMON CO       PTCLDY    21  18  88 VRB3      29.87F
$$

...UNOFFICIAL OBSERVATIONS...

CITY           SKY/WX    TMP DP  RH WIND       PRES   REMARKS
COLBY KS       CLEAR     30  30 100 SW8       29.91F
GOVE KS          N/A     31  32 100 MISG        N/A
NORTON KS      CLEAR     34  28  80 W5        29.90F
KIT CARSON CO    N/A     30  26  85 MISG        N/A
YUMA CO          N/A     30  25  81 CALM        N/A
$$


USA.gov is the U.S. government's official web portal to all federal, state and local government web resources and services.